Weather in Rossoshi

Russia / Altai Krai     52°05′09″N   85°14′25″E
temp.,
°C
wind,
m/s
gust,
m/s
humid.,
%
clouds,
%
prec.,
mm/h
press.,
hPa
HPBL,
m
8 august, mon
mon801:00+14s226797 0.0 100815
04:00+13s22723 0.0 100819
07:00+14ssw22726 0.0 100829
10:00+22ne224675 0.0 1008650
13:00+25nne3236100 0.1 10071466
16:00+27nne323285 0.0 10071941
19:00+26ne443426 0.0 10061609
22:00+18ssw226316 0.1 100817
9 august, tue
tue901:00+16s227178 0.1 100816
04:00+15s227723 0.0 100821
07:00+16s2272100 0.0 100838
10:00+23nne215172 0.0 1008651
13:00+26ene333782 0.0 10071575
16:00+28ne343138 0.0 10062463
19:00+24nnw224130 0.1 100621
22:00+18ssw327329 0.3 100721
10 august, wed
wed1001:00+16s228337 0.5 100721
04:00+14s22845 0.0 100720
07:00+15s2379100 0.0 100745
10:00+24ese334327 0.0 1006545
13:00+29e4331100 0.0 10051438
16:00+18s5788100 5.1 1008148
19:00+20s367694 5.7 1007213
22:00+18s2277100 0.0 100837
11 august, thu
thu1101:00+15ssw228951 0.3 100931
04:00+14s22885 0.2 100923
07:00+14s23835 0.2 100839
10:00+22nw1152100 0.0 1008450
13:00+24nw5450100 0.3 10091055
16:00+22sse4367100 1.6 1009790
19:00+19s3579100 2.4 1008249
22:00+16ssw2289100 0.4 100919
12 august, fri
fri1201:00+15sw1188100 0.4 101011
04:00+14s2289100 0.0 101017
07:00+14ssw11815 0.0 101125
10:00+21n11595 0.0 1011669
13:00+24nne324636 0.0 10091743
16:00+25n214196 0.1 10081837
19:00+24n334695 0.1 10081061
22:00+17wsw1279100 0.8 100818